STARLINK-36910, 68005

Orbit data source: Space-Track

STARLINK-36910, 68005 is a payload satellite owned by SpaceX/Seattle (US) in LEO that was launched on Fri, 27 Feb 2026 UTC via an FALCON 9 launch vehicle from the Air Force Eastern Test Range (AFETR). Payload-class satellites include a variety of spacecraft equipped with specific instruments for various scientific and technological missions. These include communications satellites like Starlink; space stations such as the ISS; scientific satellites like the Hubble; Earth observation satellites from companies like Planet Labs, Umbra, and HawkEye 360; GPS; miniature CubeSats for education and research; and military/defense satellites.

Loading next visibility...
Identifier
68005, 2026-039V
Orbit
LEO
Country
Flag of USUS
Related business
Manufacturer
SpaceX/Seattle
Mission
Operational Commercial Communications
Bus & Motor
STARLINK V2MO, Unknown motor
Mass
575 kg wet, ~530 kg dry
Launch date (UTC)
2026-02-27 (2 months ago)
Launch vehicle
FALCON 9
Launch site
Air Force Eastern Test Range (AFETR)
Object type
Payload
Rocket body
Debris
Shape & HBR
Box + 2 Pan, 17.7 m
Radar Cross Section
36.964 m²

Expand to show TLE details & history
Last TLE update: 2 days ago

TLE from 2 days ago
0 STARLINK-36910
1 68005U 26039V   26110.23033915  .00006343  00000-0  23980-3 0  9996
2 68005  42.9994 174.5708 0000918 225.3015 134.7762 15.27581954  8056
Epoch: 2026-04-20T05:31Z
TLE epoch observation values (Epoch: 2026-04-20T05:31:41.302Z)
Latitude
-0.00002°
Longitude
-116.67477°
Altitude
483.262 km
Speed
7.625 km/s
True Right ascension
11h 38m 16s
True Declination
0° 00' 00"
Sunlit
Object was in full shadow at epoch
Visualization orbit readout
Latitude
Unknown
Longitude
Unknown
Altitude
Unknown
Speed
Unknown
Apparent Right ascension
Unknown
Apparent Declination
Unknown
Sunlit
N/A
Visualization observer readout
Local Sidereal Time
18:57:09
Azimuth
Unknown
Elevation
Unknown
Doppler factor
Unknown
Orbital elements
Apogee altitude
485.619 km
Perigee altitude
484.358 km
Semi-major axis
6,863.126 km
Eccentricity
0.00009
Inclination
42.9994°
RAAN
174.5708°
Arg. of periapsis
225.3015°
True anomaly
134.78367°
Mean anomaly
134.7762°
Eccentric anomaly
134.77993°
Mean motion
3.81733 °/min
Orbital period
94.31 mins
BSTAR
0.0002398
Loading maneuver chart data...
Computing Atmospheric mass density...
Loading historical data...
Loading historical data...
Loading historical data...
Loading historical data...
Loading historical data...
Loading historical data...
Loading historical data...

Documentation

Showing up to 5 results
|